NOAA 16 DEB, 41509

Orbit data source: Space-Track

NOAA 16 DEB, 41509 is space debris in SSO originally from a launch on Thu, 21 Sep 2000 UTC launched from the Air Force Western Test Range (AFWTR). Debris objects in space refer to the collection of defunct objects orbiting the Earth. Examples of debris include non-operational satellites, rocket bodies, and fragments generated from explosions, collisions, or faulty payload assembly.

Loading next visibility...
Identifier
41509, 2000-055MH
Orbit
SSO
Country
Flag of USUS
Related business
Manufacturer
Unknown
Mission
Spacecraft
Bus & Motor
Unknown
Mass
Unknown
Launch date (UTC)
2000-09-21 (25 years ago)
Launch vehicle
Unknown
Launch site
Air Force Western Test Range (AFWTR)
Object type
Payload
Rocket body
Debris
Shape & HBR
Unknown shape, 0.1 m
Radar Cross Section
Small (<0.1 m²)

Expand to show TLE details & history
Last TLE update: 2 days ago

TLE from 2 days ago
0 NOAA 16 DEB
1 41509U 00055MH  25295.19966807  .00006144  00000-0  24074-2 0  9992
2 41509  98.7653  28.1503 0015099 307.4492  52.5315 14.29727811495743
Epoch: 2025-10-22T04:47Z
TLE epoch observation values (Epoch: 2025-10-22T04:47:31.321Z)
Latitude
-0.00006°
Longitude
-74.60689°
Altitude
788.989 km
Speed
7.463 km/s
True Right ascension
01h 52m 36s
True Declination
0° 00' 00"
Sunlit
Object was in full shadow at epoch
Visualization orbit readout
Latitude
Unknown
Longitude
Unknown
Altitude
Unknown
Speed
Unknown
Apparent Right ascension
Unknown
Apparent Declination
Unknown
Sunlit
N/A
Visualization observer readout
Local Sidereal Time
00:23:05
Azimuth
Unknown
Elevation
Unknown
Doppler factor
Unknown
Orbital elements
Apogee altitude
800.612 km
Perigee altitude
778.966 km
Semi-major axis
7,167.926 km
Eccentricity
0.00151
Inclination
98.7653°
RAAN
28.1503°
Arg. of periapsis
307.4492°
True anomaly
52.66898°
Mean anomaly
52.5315°
Eccentric anomaly
52.60023°
Mean motion
3.57646 °/min
Orbital period
100.66 mins
BSTAR
0.0024074
Loading maneuver chart data...
Computing Atmospheric mass density...
Loading historical data...
Loading historical data...
Loading historical data...
Loading historical data...
Loading historical data...
Loading historical data...
Loading historical data...

Documentation

Showing up to 5 results
|